Hastings, NE

8:32 PM CST on February 11, 2016 (GMT -0600)
Hastings Municipal

Weather History for KHSI - April, 2014

Change the Weather History Date:

Monday, April 14, 2014

  Actual Average Record
Temperature  
Mean Temperature 37 °F 50 °F  
Max Temperature 47 °F 63 °F 89 °F (2003)
Min Temperature 27 °F 38 °F 17 °F (1928)
Degree Days  
Heating Degree Days 28 15  
Month to date heating degree days 236 238  
Since 1 July heating degree days 5975 5645  
Cooling Degree Days 0 0  
Month to date cooling degree days 3 0  
Year to date cooling degree days 3 0  
Moisture  
Dew Point 22 °F    
Average Humidity 56    
Maximum Humidity 72    
Minimum Humidity 40    
Precipitation  
Precipitation T in 0.08 in 1.88 in (1999)
Month to date precipitation 1.36 0.94  
Year to date precipitation 2.22 3.63  
Snow  
Snow T in 0.10 in 6.90 in (1996)
Month to date snowfall 2.2 0.9  
Since 1 July snowfall 21.7 28.5  
Snow Depth 1.00 in    
Sea Level Pressure  
Sea Level Pressure 30.20 in    
Wind  
Wind Speed 17 mph (NNW)    
Max Wind Speed 35 mph    
Max Gust Speed 41 mph    
Visibility 10 miles    
Events Rain    
T = Trace of Precipitation, MM = Missing Value Source: NWS Daily Summary

Daily Weather History Graph

Daily Weather History Graph

Search for Another Location

Airport or City:

Trip Planner

Search our weather history database for the weather conditions in past years. The results will help you decide how hot, cold, wet, or windy it might be!

Date:

Astronomy

Apr. 14, 2014 Rise Set
Actual Time 6:56 AM CDT 8:12 PM CDT
Civil Twilight 6:28 AM CDT 8:40 PM CDT
Nautical Twilight 5:54 AM CDT 9:14 PM CDT
Astronomical Twilight 5:19 AM CDT 9:49 PM CDT
Moon 7:52 PM CDT (4/14) 6:29 AM CDT (4/14)
Length of Visible Light 14h 11m
Length of Day
13h 15m
Full, 100% of the Moon is Illuminated
Apr 14
Full
Apr 15
Full
Apr 22
Last Quarter
Apr 29
New
May 6
First Quarter

Hourly Weather History & Observations

Time (CDT) Temp. Windchill Dew Point Humidity Pressure Visibility Wind Dir Wind Speed Gust Speed Precip Events Conditions
12:53 AM 33.1 °F 19.1 °F 23.0 °F 66% 30.10 in 10.0 mi North 29.9 mph 38.0 mph N/A   Overcast
1:53 AM 30.9 °F 16.2 °F 21.9 °F 69% 30.12 in 10.0 mi North 29.9 mph 39.1 mph N/A   Overcast
2:53 AM 30.0 °F 15.2 °F 21.0 °F 69% 30.13 in 10.0 mi North 28.8 mph 40.3 mph N/A   Overcast
3:53 AM 28.4 °F 13.0 °F 19.4 °F 69% 30.10 in 10.0 mi North 28.8 mph 36.8 mph N/A   Overcast
4:53 AM 28.0 °F 13.3 °F 19.0 °F 69% 30.20 in 10.0 mi North 25.3 mph 35.7 mph N/A   Overcast
5:53 AM 28.0 °F 14.3 °F 18.0 °F 66% 30.20 in 10.0 mi North 21.9 mph 28.8 mph N/A   Overcast
6:53 AM 26.6 °F 12.4 °F 17.6 °F 69% 30.17 in 10.0 mi NNW 21.9 mph 28.8 mph N/A   Overcast
7:53 AM 27.0 °F 13.2 °F 18.0 °F 69% 30.25 in 10.0 mi North 20.7 mph - N/A   Overcast
8:53 AM 27.0 °F 13.5 °F 17.1 °F 66% 30.27 in 10.0 mi NNW 19.6 mph - N/A   Scattered Clouds
9:53 AM 28.9 °F 16.1 °F 18.0 °F 64% 30.28 in 10.0 mi NNW 19.6 mph - N/A   Clear
10:53 AM 30.9 °F 18.7 °F 18.0 °F 59% 30.31 in 10.0 mi NNW 19.6 mph - N/A   Clear
11:53 AM 32.0 °F 21.6 °F 19.0 °F 59% 30.31 in 10.0 mi NW 15.0 mph - N/A   Clear
12:53 PM 35.6 °F 27.1 °F 21.2 °F 56% 30.23 in 10.0 mi NNW 12.7 mph - N/A   Clear
1:53 PM 39.0 °F 31.0 °F 21.9 °F 50% 30.26 in 10.0 mi WNW 13.8 mph 19.6 mph N/A   Clear
2:53 PM 43.0 °F 35.1 °F 23.0 °F 45% 30.22 in 10.0 mi West 17.3 mph - N/A   Clear
3:53 PM 44.1 °F 36.8 °F 21.9 °F 42% 30.19 in 10.0 mi WNW 16.1 mph - N/A   Mostly Cloudy
4:53 PM 46.0 °F 38.8 °F 25.0 °F 44% 30.17 in 10.0 mi West 18.4 mph 24.2 mph N/A   Mostly Cloudy
5:24 PM 39.0 °F 31.0 °F 28.0 °F 65% 30.13 in 5.0 mi NW 13.8 mph 28.8 mph 0.00 in Rain Light Rain
5:53 PM 43.0 °F 35.1 °F 28.9 °F 58% 30.17 in 10.0 mi NW 17.3 mph - 0.00 in   Mostly Cloudy
6:53 PM 44.1 °F 37.1 °F 26.1 °F 49% 30.17 in 10.0 mi NW 15.0 mph - N/A   Mostly Cloudy
7:53 PM 39.9 °F 35.1 °F 27.0 °F 60% 30.17 in 10.0 mi NW 6.9 mph - N/A   Clear
8:53 PM 35.1 °F 29.3 °F 26.1 °F 70% 30.18 in 10.0 mi WNW 6.9 mph - N/A   Clear
9:53 PM 36.0 °F 28.0 °F 21.9 °F 57% 30.21 in 10.0 mi NNW 11.5 mph - N/A   Clear
10:53 PM 33.1 °F 26.9 °F 23.0 °F 66% 30.23 in 10.0 mi NW 6.9 mph - N/A   Clear
11:53 PM 30.9 °F 25.2 °F 23.0 °F 72% 30.23 in 10.0 mi NW 5.8 mph - N/A   Clear